This is the latest recevied weather packets stored in our database for station/object IR9AK-10. If no packets are shown the sender has not sent any weather packets the latest 10 day(s).
| Time | Temp. | Humidity | Pressure | Rain* | Wind** | Luminosity | Snow |
|---|---|---|---|---|---|---|---|
| 1777700720 | 16.11° C | 52% | 1066 hPa | - | - | - | - |
| 1777700121 | 16.11° C | 53% | 1065.9 hPa | - | - | - | - |
| 1777699522 | 15.56° C | 54% | 1065.9 hPa | - | - | - | - |
| 1777698922 | 15.56° C | 53% | 1065.9 hPa | - | - | - | - |
| 1777698322 | 15° C | 53% | 1065.7 hPa | - | - | - | - |
| 1777697724 | 15° C | 53% | 1065.7 hPa | - | - | - | - |
| 1777697125 | 15° C | 51% | 1065.6 hPa | - | - | - | - |
| 1777696527 | 14.44° C | 53% | 1065.7 hPa | - | - | - | - |
| 1777695927 | 14.44° C | 53% | 1065.7 hPa | - | - | - | - |
| 1777695327 | 15° C | 50% | 1065.7 hPa | - | - | - | - |
| 1777694728 | 15° C | 51% | 1065.6 hPa | - | - | - | - |
| 1777694129 | 15° C | 50% | 1065.6 hPa | - | - | - | - |
| 1777693529 | 15° C | 51% | 1065.5 hPa | - | - | - | - |
| 1777692930 | 15° C | 51% | 1065.5 hPa | - | - | - | - |
| 1777692331 | 15° C | 50% | 1065.4 hPa | - | - | - | - |
| 1777691731 | 15.56° C | 50% | 1065.5 hPa | - | - | - | - |
| 1777691133 | 15.56° C | 49% | 1065.5 hPa | - | - | - | - |
| 1777690535 | 15.56° C | 49% | 1065.4 hPa | - | - | - | - |
| 1777689935 | 15.56° C | 50% | 1065.4 hPa | - | - | - | - |
| 1777689336 | 16.11° C | 50% | 1065.4 hPa | - | - | - | - |
| 1777688738 | 16.11° C | 50% | 1065.5 hPa | - | - | - | - |
| 1777688138 | 16.11° C | 51% | 1065.5 hPa | - | - | - | - |
| 1777687539 | 16.11° C | 52% | 1065.6 hPa | - | - | - | - |
| 1777686939 | 16.11° C | 53% | 1065.6 hPa | - | - | - | - |
| 1777686340 | 16.11° C | 53% | 1065.5 hPa | - | - | - | - |
* Rain since midnight (hover to see other rain measurements)
** Current wind speed in m/s (hover to see current wind gust speed)